Location: Firdgum
(53.2488°N, 5.5615°E)
Time: 19:39:11
(UTC+00:00)

PSLV R/B - Pass Details

Date: 08 December 2019
Orbit: 504 x 580 km, 97.8° (Epoch: 25 January)

Event Time Altitude Azimuth Distance (km) Brightness Sun altitude
Rises 05:26:19 0° 10° (N) 2,780 7.4 -18.4°
Reaches altitude 10° 05:28:30 10° 5° (N) 1,888 6.4 -18.1°
Maximum altitude 05:32:26 47° 291° (WNW) 768 4.1 -17.6°
Drops below altitude 10° 05:36:24 10° 218° (SW) 1,894 6.3 -17.0°
Sets 05:38:36 0° 212° (SSW) 2,791 7.3 -16.7°
